Regional Weather Roundup
Issued by NWS

Home | Current Version | Previous Version | Graphics & Text | Print | Product List | Glossary On
Versions: 1 2 3 4 5 6 7 8 9 10 11 12 13 14 15 16 17 18 19 20 21 22 23 24 25 26 27 28 29 30 31 32 33 34 35 36 37 38 39 40 41 42 43 44 45 46 47 48 49 50
000
ASUS43 KIND 041709
RWRIN

WEATHER ROUNDUP FOR INDIANA
NATIONAL WEATHER SERVICE INDIANAPOLIS IN
100 PM EDT FRI SEP 04 2015

NOTE: "FAIR" INDICATES FEW OR NO CLOUDS BELOW 12,000 FEET WITH NO
SIGNIFICANT WEATHER AND/OR OBSTRUCTIONS TO VISIBILITY.

* - STATION DOES NOT REPORT WEATHER SUCH AS PRECIPITATION OR FOG.

+ - STATION NOT QUALITY CONTROLLED BY THE NATIONAL WEATHER SERVICE.
    USE DATA WITH CAUTION...ESPECIALLY DEWPOINT AND RELATIVE
    HUMIDITY OBSERVATIONS.

INZ001>003-010>013-019-020-041800-
NORTHWEST INDIANA

CITY           SKY/WX    TMP DP  RH WIND       PRES   REMARKS
GARY /AIRPORT/ PTSUNNY   77  68  73 VRB6      30.04S
KNOX *+        PTSUNNY   81  68  65 W3        30.02F
LA PORTE +     MOSUNNY   83  73  73 W5        30.04F
MICHIGAN CITY+ MOSUNNY   75  72  88 N5        30.04F
MONTICELLO +   MOSUNNY   85  73  68 CALM      30.02S
RENSSELAER +   MOSUNNY   84  73  70 SW3       30.03F
VALPARAISO     CLOUDY    81  71  71 W5        30.04S

$$

LMZ046-743>745-041800-
SOUTHERN LAKE MICHIGAN

STATION/POSITION TIME  TEMP    WIND        PRES    WAVE
                       AIR SEA DIR/SP/G            HT
                 (UTC) (F)     (DEG/KT/KT) (MB)    (FT)
BURNS HARBOR     1600   72      20/  5/  6 1017.6R
MICHIGAN CITY    1600   74     340/  5/  6   N/A
5NW MICH CITY    1700   72 74   20/  6/  8   N/A     1

$$

INZ004-005-014>016-021>024-041800-
NORTH CENTRAL INDIANA

CITY           SKY/WX    TMP DP  RH WIND       PRES   REMARKS
ELKHART        MOSUNNY   79  68  69 NW5       30.04F
GOSHEN         MOSUNNY   80  70  71 W6        30.03F
LOGANSPORT +   SUNNY     86  64  48 W3        30.04S
PERU/GRISSOM   SUNNY     87  71  57 SW8       30.02F
ROCHESTER +    SUNNY     88  70  55 SW3       30.03F
SOUTH BEND     SUNNY     79  69  71 VRB6      30.04F
WARSAW +       MOSUNNY   81  72  74 W5        30.03F

$$

INZ006>009-017-018-025>027-041800-
NORTHEAST INDIANA

CITY           SKY/WX    TMP DP  RH WIND       PRES   REMARKS
ANGOLA *+      MOSUNNY   81  72  74 NW6       30.04S
AUBURN +       PTSUNNY   79  70  73 NW3       30.03F
FORT WAYNE     TSTM      69  61  75 NE14G45   30.05R VSB 1/2
HUNTINGTON +   MOSUNNY   87  65  49 W9        30.02S THUNDER

$$

INZ028-029-035-036-043>045-051>053-041800-
WEST CENTRAL INDIANA

CITY           SKY/WX    TMP DP  RH WIND       PRES   REMARKS
CRAWFORDSVL +  MOSUNNY   86  62  45 W5        30.05S
GREENCASTLE +  SUNNY     88  63  42 CALM      30.06S
LAFAYETTE      SUNNY     89  66  46 W7        30.02S
TERRE HAUTE    MOSUNNY   91  68  46 SW8       30.04F HX  95

$$

INZ030>032-037>040-046>048-054>057-064-065-041800-
CENTRAL INDIANA

CITY           SKY/WX    TMP DP  RH WIND       PRES   REMARKS
COLUMBUS       MOSUNNY   86  64  48 W5        30.05F
FISHERS *+     SUNNY     86  70  58 W5        30.04F
FRANKFORT +    SUNNY     91  68  47 SW9       30.06S
GREENWOOD *+   SUNNY     90  64  43 SW6       30.06S
INDIANAPOLIS   MOSUNNY   91  66  43 W8        30.04F
-EAGLE CREEK   MOSUNNY   89  67  47 W8        30.04S
KOKOMO *+      MOSUNNY   90  70  51 NW9       30.03S HX  95
MARION +       MOSUNNY   87  56  35 W9        30.04S
MT COMFORT *+  SUNNY     90  54  29 NW5       30.05F
SHELBYVILLE    MOSUNNY   92  68  45 CALM      30.04S HX  96
ZIONSVILLE +   MOSUNNY   88  66  47 W6        30.06S

$$

INZ033-034-041-042-049-050-058-059-041800-
EAST CENTRAL INDIANA

CITY           SKY/WX    TMP DP  RH WIND       PRES   REMARKS
MUNCIE         SUNNY     86  68  54 W9        30.04F

$$

INZ060-061-067>069-081>083-085>088-041800-
SOUTHWEST INDIANA

CITY           SKY/WX    TMP DP  RH WIND       PRES   REMARKS
EVANSVILLE     SUNNY     90  67  46 SW5       30.05F
HUNTINGBURG *+ MOSUNNY   90  70  51 N5        30.05F HX  95
WASHINGTON +   SUNNY     90  58  34 W5        30.04F

$$

INZ062-063-066-070>080-084-089>092-041800-
SOUTH CENTRAL AND SOUTHEAST INDIANA

CITY           SKY/WX    TMP DP  RH WIND       PRES   REMARKS
BLOOMINGTON    MOSUNNY   88  68  51 CALM      30.06F
MADISON *+     MOSUNNY   90  63  40 CALM      30.08F
NORTH VERNON + SUNNY     88  66  48 CALM      30.07S
SEYMOUR +      CLOUDY    91  66  43 N3        30.05S

$$




USA.gov is the U.S. government's official web portal to all federal, state and local government web resources and services.